SCP
0 0 0 1 1 1 1 1 1 1 1 1 1 1 1 1 0 0 0 0 0 0 0 0 0 0 0 0 0 0 0 0 0 0 0 0 0 0 0 0 0 0 0
0 0 0 1 1 1 1 1 1 1 1 1 1 1 1 1 0 0 0 0 0 0 0 0 0 0 0 0 0 0 0 0 0 0 0 0 0 0 0 0 0 0 0
0 0 0 1 1 1 1 1 1 1 1 1 1 1 1 1 1 0 0 0 0 0 0 0 0 0 0 0 0 0 0 0 0 0 0 0 0 0 0 0 0 0 0
0 0 0 1 1 1 1 1 1 1 1 1 1 1 1 1 1 1 0 0 0 0 0 0 0 0 0 0 0 0 0 0 0 0 0 0 0 0 0 0 0 0 0
0 0 0 1 1 1 1 1 1 1 1 1 1 1 1 1 1 1 0 0 0 0 0 0 0 0 0 0 0 0 0 0 0 0 0 0 0 0 0 0 0 0 0
0 0 1 1 1 1 1 1 1 1 1 1 1 1 1 1 1 1 1 0 0 0 0 0 0 0 0 0 0 0 0 0 0 0 0 0 0 0 0 0 0 0 0
0 0 1 1 1 1 1 1 1 1 1 1 1 1 1 1 1 1 1 0 0 0 0 0 0 0 0 0 0 0 0 0 0 0 0 0 0 0 0 0 0 0 0
0 0 1 1 1 1 1 1 1 1 1 1 1 1 1 1 1 1 0 0 0 0 0 0 0 0 0 0 0 0 0 0 0 0 0 0 0 0 0 0 0 0 0
0 0 1 1 1 1 1 1 1 1 1 1 1 1 1 1 0 0 0 0 0 0 0 0 0 0 0 0 0 0 0 0 0 0 0 0 0 0 0 0 0 0 0
0 0 1 1 1 1 1 1 1 1 1 1 0 0 0 0 0 0 0 0 0 0 0 0 0 0 0 0 0 0 0 0 0 0 0 0 0 0 0 0 0 0 0
0 0 0 0 0 0 0 0 0 0 0 0 0 0 0 0 0 0 0 0 0 0 0 0 0 0 0 0 0 0 0 0 0 0 0 0 0 0 0 0 0 0 0
0 0 0 0 0 0 0 0 0 0 0 0 0 0 0 0 0 0 0 0 0 0 0 0 0 0 0 0 0 0 0 0 0 0 0 0 0 0 0 0 0 0 0
0 0 0 0 0 0 0 0 0 0 0 0 0 0 0 0 0 0 0 0 0 0 0 0 0 0 0 0 0 0 0 0 0 0 0 0 0 0 0 0 0 0 0
0 0 0 0 0 0 0 0 0 0 0 0 0 0 0 0 0 0 0 0 0 0 0 0 0 0 0 0 0 0 0 0 0 0 0 0 0 0 0 0 0 0 0
0 0 0 0 0 0 0 0 0 0 0 0 0 0 0 0 0 0 0 0 0 0 0 0 0 0 0 0 0 0 0 0 0 0 0 0 0 0 0 0 0 0 0
0 0 0 0 0 0 0 0 0 0 0 0 0 0 0 0 0 0 0 0 0 0 0 0 0 0 0 0 0 0 0 0 0 0 0 0 0 0 0 0 0 0 0
0 0 0 0 0 0 0 0 0 0 0 0 0 0 0 0 0 0 0 0 0 0 0 0 0 0 0 0 0 0 0 0 0 0 0 0 0 0 0 0 0 0 0
0 0 0 0 0 0 0 0 0 0 0 0 0 0 0 0 0 0 0 0 0 0 0 0 0 0 0 0 0 0 0 0 0 0 0 0 0 0 0 0 0 0 0
0 0 0 0 0 0 0 0 0 0 0 0 0 0 0 0 0 0 0 0 0 0 0 0 0 0 0 0 0 0 0 0 0 0 0 0 0 0 0 0 0 0 0
0 0 0 0 0 0 0 0 0 0 0 0 0 0 0 0 0 0 0 0 0 0 0 0 0 0 0 0 0 0 0 0 0 0 0 0 0 0 0 0 0 0 0
0 0 0 0 0 0 0 0 0 0 0 0 0 0 0 0 0 0 0 0 0 0 0 0 0 0 0 0 0 0 0 0 0 0 0 0 0 0 0 0 0 0 0
0 0 0 0 0 0 0 0 0 0 0 0 0 0 0 0 0 0 0 0 0 0 0 0 0 0 0 0 0 0 0 0 0 0 0 0 0 0 0 0 0 0 0
0 0 0 0 0 0 0 0 0 0 0 0 0 0 0 0 0 0 0 0 0 0 0 0 0 0 0 0 0 0 0 0 0 0 0 0 0 0 0 0 0 0 0
0 0 0 0 0 0 0 0 0 0 0 0 0 0 0 0 0 0 0 0 0 0 0 0 0 0 0 0 0 0 0 0 0 0 0 0 0 0 0 0 0 0 0
0 0 0 0 0 0 0 0 0 0 0 0 0 0 0 0 0 0 0 0 0 0 0 0 0 0 0 0 0 0 0 0 0 0 0 0 0 0 0 0 0 0 0
0 0 0 0 0 0 0 0 0 0 0 0 0 0 0 0 0 0 0 0 0 0 0 0 0 0 0 0 0 0 0 0 0 0 0 0 0 0 0 0 0 0 0
Wind_Speed
7 7 7 8 8 9 10 10 10 9 7 6 6 5 5 5 4 4 4 4 4 4 4 3 3 3 3 3 4 3 4 3 2 3 3 3 4 3 3 4 3 4 4
8 8 8 8 9 9 10 10 10 10 9 6 5 4 5 5 4 4 4 4 4 4 4 3 3 3 3 4 4 4 3 3 3 3 3 3 4 5 4 4 4 4 4
7 8 8 8 9 10 10 9 10 10 9 8 5 5 4 5 5 5 4 4 4 4 3 4 3 3 4 4 5 5 5 4 4 4 4 3 2 2 4 5 4 4 4
7 7 8 9 10 10 10 10 10 10 9 8 7 7 6 5 4 4 4 4 5 4 4 4 4 4 4 3 5 5 4 5 4 4 4 4 3 3 2 4 5 5 5
6 7 7 8 9 9 9 10 10 9 9 8 8 7 6 5 4 4 4 4 4 4 4 5 4 4 4 4 4 4 5 5 5 4 3 4 3 5 5 3 3 4 4
6 6 6 7 8 8 9 9 10 9 9 8 8 8 7 6 5 5 4 4 4 4 5 5 5 5 4 4 5 5 6 5 5 5 4 4 4 4 5 4 5 4 3
5 6 7 7 7 8 8 9 10 9 9 9 8 8 7 7 6 6 5 4 4 4 4 5 5 5 5 5 5 5 5 6 6 6 5 4 4 4 4 5 4 4 3
4 5 6 6 7 8 8 8 9 8 8 8 7 7 7 5 5 5 4 5 4 4 4 5 5 5 5 5 5 5 6 5 6 6 5 4 4 4 4 4 4 5 4
5 5 6 6 7 7 7 7 7 7 7 7 7 6 6 5 5 5 5 5 4 4 4 5 5 6 5 5 5 4 5 5 5 5 5 5 4 4 4 4 4 5 5
5 5 5 6 6 6 7 7 7 7 7 6 6 5 6 6 5 5 5 5 5 4 4 5 5 5 5 5 5 5 5 5 5 4 4 4 4 3 4 4 4 4 5
5 5 5 6 6 6 7 6 6 6 6 6 5 5 6 6 6 5 5 5 5 5 5 5 5 5 5 5 5 5 5 5 5 4 5 5 5 4 4 4 4 4 5
5 5 5 5 5 5 5 5 5 5 5 5 5 5 5 6 6 5 5 5 5 5 5 5 5 5 5 5 5 6 5 5 5 5 5 5 4 5 5 4 4 5 5
5 5 5 4 4 4 5 5 5 5 5 5 5 5 5 5 5 5 5 5 5 4 4 4 4 4 5 5 5 5 5 5 5 5 5 5 5 5 4 4 5 5 5
5 5 4 4 4 4 4 4 4 4 4 4 4 4 4 4 5 4 5 4 4 5 5 5 5 5 5 5 5 5 5 5 5 5 5 5 5 5 5 5 5 5 5
4 5 5 4 4 4 4 4 3 4 4 4 4 4 3 3 4 4 4 4 4 5 5 5 5 5 5 4 4 5 5 5 5 5 5 5 4 4 4 4 4 5 5
4 4 4 4 4 4 4 4 4 4 4 4 4 4 3 3 3 3 4 4 4 4 4 5 5 5 4 2 2 4 5 4 5 5 5 5 6 6 6 5 5 6 6
3 3 4 4 4 4 4 4 4 4 4 5 4 4 4 4 4 3 3 3 4 4 4 4 4 4 3 4 4 5 5 5 5 5 5 5 4 5 6 6 7 7 7
1 2 3 4 4 4 4 4 4 4 4 4 4 4 4 4 3 3 3 3 3 4 4 4 4 4 4 5 5 5 6 5 5 6 6 5 5 5 5 5 5 5 5
1 1 2 3 4 4 4 4 4 4 4 4 4 4 4 4 3 4 3 3 3 4 4 4 4 4 4 5 5 5 5 4 5 5 5 6 6 3 3 5 5 5 4
1 1 1 3 3 3 3 4 4 4 3 3 3 3 4 4 4 3 3 3 3 4 4 3 3 4 3 4 4 5 4 4 4 3 4 4 4 3 3 5 5 5 5
1 2 2 2 3 3 3 4 3 3 2 2 2 2 2 3 4 3 3 3 4 4 4 3 3 3 3 4 5 4 4 3 3 3 3 2 3 4 5 6 5 5 4
1 2 3 2 2 2 3 3 2 2 1 2 2 1 1 2 2 2 3 4 4 4 4 3 3 2 2 2 4 4 4 4 4 3 2 1 4 4 4 5 4 4 5
1 1 2 3 2 2 2 3 2 2 2 2 1 1 1 1 1 2 3 3 3 3 2 2 2 2 2 3 4 6 5 5 4 2 1 0 4 5 4 5 5 5 4
2 2 2 2 2 2 2 2 2 2 2 2 1 1 1 1 1 2 2 2 2 2 2 2 2 2 2 2 2 3 4 5 4 3 2 4 4 4 3 4 5 4 4
2 2 2 2 2 2 2 1 2 2 2 2 2 2 1 1 0 1 2 2 1 2 2 2 2 2 2 0 0 1 1 1 1 2 3 2 2 2 2 2 3 3 3
2 2 2 2 2 2 2 1 2 2 2 2 2 2 1 1 1 1 1 1 1 1 1 1 3 1 1 2 2 1 1 1 1 2 3 2 2 2 3 3 3 3 3
Wind_Direction
189 180 181 182 180 177 175 177 179 173 174 174 178 176 172 168 166 170 168 176 181 180 196 198 178 202 197 203 205 208 200 222 222 229 226 222 217 231 230 234 239 228 230
185 181 184 183 180 178 176 176 179 175 179 175 176 178 172 172 164 169 171 184 188 195 192 201 208 198 199 200 208 215 220 215 221 242 243 231 206 203 218 223 225 234 232
195 188 185 186 182 179 178 175 175 175 180 174 172 164 169 173 168 174 175 184 192 196 203 199 217 209 214 202 209 211 219 219 215 237 257 262 250 213 195 212 222 225 233
198 194 187 185 184 178 175 171 171 173 173 175 179 179 184 185 178 182 174 186 194 198 199 207 213 221 224 207 215 210 226 226 226 216 244 276 309 276 233 205 207 217 230
191 186 186 184 180 175 170 169 167 170 174 183 183 190 193 188 178 180 171 189 188 201 203 204 209 215 225 219 226 215 227 231 237 238 228 224 231 254 264 254 234 227 227
178 172 167 168 170 172 168 166 166 168 174 183 188 194 190 188 183 186 183 194 195 199 203 210 213 219 225 219 222 220 223 236 243 252 248 240 236 232 243 252 250 249 236
172 162 160 160 162 166 168 167 166 170 175 184 188 191 191 190 193 198 195 206 204 203 204 215 216 222 224 221 223 220 230 230 233 238 244 249 254 259 255 260 265 265 254
164 160 158 161 162 162 167 166 166 169 175 182 185 188 192 197 195 202 211 209 217 214 206 215 218 220 220 219 219 223 221 224 232 238 241 248 252 252 249 255 260 263 258
162 160 155 159 159 159 165 165 162 165 171 175 178 184 191 198 197 198 209 211 214 213 204 212 218 216 214 219 219 225 223 222 226 228 223 235 244 246 253 252 253 262 267
159 154 153 155 156 157 160 163 164 169 170 173 180 178 181 188 197 204 204 213 213 216 213 213 217 215 213 212 216 220 216 220 225 232 237 239 242 236 240 244 250 257 266
156 151 150 151 152 151 154 162 165 167 173 178 179 182 182 185 193 198 207 210 214 216 221 220 220 216 216 214 216 225 217 222 226 232 233 234 249 247 247 246 247 249 250
153 146 141 146 149 147 148 154 164 172 176 177 179 184 185 188 192 194 203 207 212 218 220 220 221 222 219 215 220 228 226 226 227 231 235 236 235 238 253 252 251 252 253
150 145 142 146 147 150 155 158 168 175 177 177 179 180 187 190 193 194 200 205 209 215 218 217 221 225 222 217 220 229 230 232 233 233 234 237 241 244 246 252 250 248 243
155 152 152 155 152 151 157 165 173 170 172 179 180 181 187 192 190 192 198 205 209 213 217 221 224 224 222 220 220 225 230 233 234 233 235 238 240 243 250 248 252 255 253
162 165 162 155 157 159 165 167 169 170 171 179 181 183 185 187 187 194 200 206 214 218 219 223 222 223 221 223 226 231 230 233 237 234 233 232 237 249 257 265 259 253 248
181 176 167 162 167 174 181 179 180 174 178 186 188 180 186 187 191 199 203 210 216 224 224 226 228 227 228 170 210 245 241 236 238 238 236 230 220 222 226 246 263 269 254
187 181 177 176 174 181 189 191 189 182 189 192 188 183 186 192 198 201 204 216 221 225 228 233 234 231 218 172 195 225 242 235 234 235 237 243 231 222 233 223 226 240 246
205 190 186 179 174 175 183 188 184 184 191 195 192 192 195 195 204 207 212 223 227 226 224 230 233 232 210 174 191 215 227 236 235 235 234 240 244 241 251 246 240 242 236
233 200 185 171 172 174 177 180 181 187 195 199 201 198 198 199 211 221 223 229 226 226 227 226 229 232 218 178 191 220 225 229 238 243 240 239 239 227 232 242 245 248 242
67 128 150 157 162 169 174 179 181 185 194 198 202 204 209 211 219 226 231 228 227 230 233 229 229 229 228 173 184 216 235 231 233 233 237 230 243 212 213 237 241 244 249
66 120 138 147 148 164 177 186 183 188 192 188 191 202 221 225 222 222 225 230 231 233 236 237 231 226 224 168 171 204 242 245 239 236 239 226 176 206 217 236 241 246 259
76 118 131 130 140 157 173 174 171 176 187 174 166 178 226 254 231 225 223 229 231 227 226 226 233 218 193 176 170 193 227 265 252 245 253 210 163 199 221 228 240 242 249
85 112 130 135 143 159 166 159 147 166 187 177 167 177 209 250 274 251 229 222 226 241 245 232 229 221 187 165 172 194 211 230 249 262 277 243 180 198 208 215 226 227 229
111 126 136 137 137 140 134 130 142 155 180 182 188 198 206 203 237 281 268 251 252 253 261 267 259 241 209 188 175 194 195 202 217 232 191 184 198 218 223 204 208 226 238
105 122 128 127 125 119 111 131 140 153 170 181 184 212 220 180 218 270 314 287 287 310 283 279 270 253 237 100 28 264 247 247 215 226 224 219 210 223 224 221 218 223 229
107 105 109 101 94 101 115 119 127 144 176 195 204 221 233 217 242 232 204 25 271 154 174 271 292 284 87 115 136 175 297 285 250 231 229 236 243 248 247 237 232 230 234